This is the latest recevied weather packets stored in our database for station/object DL3NDS-WX. If no packets are shown the sender has not sent any weather packets the latest 1 day(s).
| Time | Temp. | Humidity | Pressure | Rain* | Wind** | Luminosity | Snow |
|---|---|---|---|---|---|---|---|
| 1777983702 | 20° C | 59% | 1008.5 hPa | 0 mm | 0.89 m/s, 326° | 120 W/m² | - |
| 1777983641 | 20° C | 59% | 1008.6 hPa | 0 mm | 1.34 m/s, 331° | 125 W/m² | - |
| 1777983583 | 20° C | 59% | 1008.5 hPa | 0 mm | 2.24 m/s, 325° | 130 W/m² | - |
| 1777983518 | 20° C | 59% | 1008.5 hPa | 0 mm | 2.68 m/s, 320° | 144 W/m² | - |
| 1777983457 | 20° C | 59% | 1008.6 hPa | 0 mm | 2.24 m/s, 319° | 149 W/m² | - |
| 1777983399 | 20° C | 59% | 1008.5 hPa | 0 mm | 1.79 m/s, 329° | 153 W/m² | - |
| 1777983361 | 20° C | 59% | 1008.5 hPa | 0 mm | 1.34 m/s, 329° | 155 W/m² | - |
| 1777983325 | 20° C | 58% | 1008.6 hPa | 0 mm | 2.68 m/s, 355° | 155 W/m² | - |
| 1777983227 | 20.56° C | 58% | 1008.6 hPa | 0 mm | 3.13 m/s, 329° | 155 W/m² | - |
| 1777983188 | 20.56° C | 59% | 1008.5 hPa | 0 mm | 2.24 m/s, 331° | 153 W/m² | - |
| 1777983155 | 20.56° C | 58% | 1008.6 hPa | 0 mm | 2.24 m/s, 324° | 153 W/m² | - |
| 1777983032 | 20.56° C | 59% | 1008.6 hPa | 0 mm | 2.24 m/s, 321° | 149 W/m² | - |
| 1777982970 | 20.56° C | 59% | 1008.6 hPa | 0 mm | 0.89 m/s, 323° | 149 W/m² | - |
| 1777982907 | 20.56° C | 59% | 1008.6 hPa | 0 mm | 1.34 m/s, 334° | 163 W/m² | - |
| 1777982844 | 20.56° C | 59% | 1008.6 hPa | 0 mm | 1.79 m/s, 320° | 153 W/m² | - |
| 1777982790 | 20.56° C | 59% | 1008.6 hPa | 0 mm | 1.79 m/s, 315° | 151 W/m² | - |
| 1777982728 | 20.56° C | 59% | 1008.6 hPa | 0 mm | 2.24 m/s, 313° | 155 W/m² | - |
| 1777982663 | 20.56° C | 59% | 1008.6 hPa | 0 mm | 1.79 m/s, 303° | 158 W/m² | - |
| 1777982602 | 20.56° C | 60% | 1008.7 hPa | 0 mm | 1.79 m/s, 298° | 171 W/m² | - |
| 1777982538 | 20.56° C | 59% | 1008.6 hPa | 0 mm | 1.34 m/s, 317° | 176 W/m² | - |
| 1777982483 | 20.56° C | 59% | 1008.6 hPa | 0 mm | 0.89 m/s, 330° | 174 W/m² | - |
| 1777982415 | 20.56° C | 59% | 1008.7 hPa | 0 mm | 0.45 m/s, 336° | 174 W/m² | - |
| 1777982358 | 20.56° C | 59% | 1008.6 hPa | 0 mm | 0.45 m/s, 351° | 179 W/m² | - |
| 1777982292 | 20.56° C | 58% | 1008.6 hPa | 0 mm | 0.89 m/s, 331° | 186 W/m² | - |
| 1777982232 | 21.11° C | 58% | 1008.7 hPa | 0 mm | 0.89 m/s, 334° | 207 W/m² | - |
* Rain latest hour (hover to see other rain measurements)
** Current wind speed in m/s (hover to see current wind gust speed)